Home > Weather > Piraeus > Past weeks

Flag for Greece Weather for the Past 2 Weeks in Piraeus, Greece

Now
50 °F

Passing clouds.


Feels Like: 50 °F
Forecast: 38 / 56 °F
Wind: No wind

Location: Elefsis Airport

Current Time: Feb 7, 2016 at 6:18:49 PM

Latest Report: Feb 7, 2016 at 5:50 PM


Visibility: N/A

Pressure: 30.30 "Hg

Humidity: 58%

Dew point: 36 °F

Location of PiraeusLocation

Historic Weather in Piraeus — Graph

°F

Piraeus Temperature Yesterday

Maximum temperature yesterday: 52 °F (at 1:50 PM)
Minimum temperature yesterday: 36 °F (at 10:20 PM)
Average temperature yesterday: 43 °F

High & Low Weather Summary for the Past Weeks

 TemperatureHumidityPressure
High70 °F (Feb 2, 11:20 AM)94% (Feb 5, 4:50 AM)30.48 "Hg (Feb 5, 4:50 AM)
Low30 °F (Jan 26, 3:20 AM)35% (Feb 2, 2:20 PM)29.74 "Hg (Feb 5, 4:50 AM)
Average49 °F70%30.28 "Hg
* Reported Jan 23 4:20 PM — Feb 7 4:50 PM, Piraeus, Weather by CustomWeather, © 2016

Note: Actual official high and low records may vary slightly from our data, if they occured in-between our weather recording intervals... More about our weather records

Advertising

Piraeus Weather History for the Previous 24 Hours

 ConditionsComfort  
Time TempWeatherWind HumidityBarometerVisibility
4:50 PM
Sun, Feb 7
54 °FPassing clouds.5 mph47%30.30 "HgN/A
4:20 PM55 °FPassing clouds.5 mph44%30.30 "HgN/A
3:50 PM55 °FPassing clouds.3 mph41%30.30 "HgN/A
3:20 PM54 °FScattered clouds.5 mph44%30.30 "HgN/A
2:50 PM54 °FScattered clouds.3 mph44%30.30 "HgN/A
2:20 PM54 °FScattered clouds.5 mph44%30.30 "HgN/A
1:50 PM54 °FScattered clouds.6 mph44%30.33 "HgN/A
1:20 PM54 °FScattered clouds.6 mph44%30.36 "HgN/A
12:50 PM52 °FScattered clouds.5 mph47%30.36 "HgN/A
12:20 PM52 °FScattered clouds.5 mph47%30.36 "HgN/A
11:50 AM50 °FScattered clouds.5 mph50%30.39 "HgN/A
11:20 AM50 °FScattered clouds.5 mph54%30.39 "HgN/A
10:50 AM50 °FScattered clouds.5 mph50%30.39 "HgN/A
10:20 AM50 °FPassing clouds.No wind58%30.39 "HgN/A
9:50 AM46 °FPassing clouds.3 mph66%30.39 "HgN/A
9:20 AM46 °FScattered clouds.5 mph62%30.42 "HgN/A
8:50 AM43 °FScattered clouds.No wind76%30.42 "HgN/A
8:20 AM41 °FScattered clouds.No wind76%30.42 "HgN/A
7:50 AM37 °FPartly sunny.No wind81%30.39 "HgN/A
7:20 AM36 °FPassing clouds.No wind81%30.39 "HgN/A
6:50 AM36 °FPassing clouds.6 mph81%30.39 "HgN/A
6:20 AM34 °FPassing clouds.7 mph81%30.39 "HgN/A
5:50 AM34 °FPassing clouds.No wind81%30.39 "HgN/A
5:20 AM36 °FPassing clouds.6 mph75%30.39 "HgN/A
4:50 AM34 °FPassing clouds.8 mph81%30.39 "HgN/A
4:20 AM36 °FPassing clouds.7 mph81%30.39 "HgN/A
3:50 AM36 °FPassing clouds.7 mph81%30.39 "HgN/A
3:20 AM36 °FPassing clouds.6 mph81%30.39 "HgN/A
2:50 AM36 °FPassing clouds.6 mph81%30.39 "HgN/A
2:20 AM36 °FPassing clouds.6 mph81%30.39 "HgN/A
1:50 AM36 °FPassing clouds.8 mph81%30.39 "HgN/A
12:50 AM36 °FPassing clouds.6 mph81%30.42 "HgN/A
12:20 AM36 °FPassing clouds.6 mph81%30.42 "HgN/A
11:50 PM
Sat, Feb 6
37 °FPassing clouds.5 mph75%30.39 "HgN/A
10:50 PM36 °FPassing clouds.8 mph87%30.39 "HgN/A
10:20 PM36 °FPassing clouds.6 mph81%30.39 "HgN/A
9:50 PM37 °FPassing clouds.3 mph81%30.42 "HgN/A
9:20 PM37 °FPassing clouds.6 mph81%30.39 "HgN/A
8:50 PM39 °FPassing clouds.7 mph75%30.39 "HgN/A
8:20 PM39 °FPassing clouds.5 mph75%30.39 "HgN/A
7:50 PM41 °FPassing clouds.3 mph66%30.39 "HgN/A
7:20 PM43 °FPassing clouds.5 mph61%30.36 "HgN/A
6:50 PM43 °FPassing clouds.6 mph61%30.36 "HgN/A
6:20 PM45 °FPassing clouds.7 mph53%30.33 "HgN/A
Weather by CustomWeather, © 2016

See weather overviewHow to use our weather pages